When you browse on this site, cookies collect data to enhance your experience and personalize the content and advertising you see.
Visit our Privacy Policy to learn more. By continuing to use the site, you agree to this use of cookies and data.
  • en Belgique
  • Liste des pays
  • À 7 jours
  • Température de l'eau
  • Carte satellitaire
  • Carte météo
  • Widgets météo
  • user-avatar
    Se connecter

    Météo par heure à Byala

    Ce jour, 21 Janvier, Lundi

    Heure Température Précipitation Vent Pression Humidité
    00:00 +7°C° 0 mm 3 m/s 750 mmHg 93%
    01:00 +5°C° 0 mm 3 m/s 750 mmHg 93%
    02:00 +5°C° 0 mm 3 m/s 750 mmHg 94%
    03:00 +4°C° 0 mm 4 m/s 751 mmHg 92%
    04:00 +3°C° 0 mm 5 m/s 751 mmHg 91%
    05:00 +2°C° 0 mm 5 m/s 751 mmHg 90%
    06:00 +2°C° 0 mm 5 m/s 751 mmHg 88%
    07:00 +1°C° 0 mm 5 m/s 752 mmHg 87%
    08:00 +1°C° 0 mm 5 m/s 752 mmHg 86%
    09:00 +2°C° 0 mm 5 m/s 752 mmHg 80%
    10:00 +3°C° 0 mm 5 m/s 753 mmHg 74%
    11:00 +4°C° 0 mm 6 m/s 753 mmHg 68%
    12:00 +5°C° 0 mm 5 m/s 753 mmHg 68%
    13:00 +5°C° 0 mm 5 m/s 753 mmHg 67%
    14:00 +5°C° 0 mm 5 m/s 754 mmHg 66%
    15:00 +5°C° 0 mm 5 m/s 754 mmHg 69%
    16:00 +4°C° 0 mm 4 m/s 754 mmHg 72%
    17:00 +3°C° 0 mm 4 m/s 755 mmHg 74%
    18:00 +3°C° 0 mm 4 m/s 755 mmHg 77%
    19:00 +1°C° 0 mm 4 m/s 755 mmHg 79%
    20:00 0°C° 0 mm 4 m/s 755 mmHg 81%
    21:00 0°C° 0 mm 4 m/s 756 mmHg 82%
    22:00 0°C° 0 mm 4 m/s 756 mmHg 83%
    23:00 0°C° 0 mm 3 m/s 756 mmHg 83%

    Demain, 22 Janvier, Mardi

    Heure Température Précipitation Vent Pression Humidité
    00:00 0°C° 0 mm 3 m/s 756 mmHg 84%
    01:00 0°C° 0 mm 3 m/s 756 mmHg 85%
    02:00 0°C° 0 mm 3 m/s 756 mmHg 85%
    03:00 0°C° 0 mm 3 m/s 756 mmHg 86%
    04:00 +1°C° 0 mm 3 m/s 755 mmHg 86%
    05:00 +2°C° 0 mm 2 m/s 755 mmHg 86%
    06:00 +1°C° 0 mm 3 m/s 755 mmHg 86%
    07:00 +1°C° 0 mm 3 m/s 755 mmHg 86%
    08:00 +1°C° 0 mm 3 m/s 755 mmHg 86%
    09:00 +2°C° 0 mm 3 m/s 755 mmHg 84%
    10:00 +3°C° 0 mm 3 m/s 755 mmHg 82%
    11:00 +3°C° 0 mm 4 m/s 755 mmHg 80%
    12:00 +4°C° 0 mm 4 m/s 754 mmHg 79%
    13:00 +4°C° 0 mm 4 m/s 753 mmHg 79%
    14:00 +4°C° 0 mm 4 m/s 753 mmHg 79%
    15:00 +3°C° 0 mm 5 m/s 752 mmHg 81%
    16:00 +3°C° 0 mm 5 m/s 752 mmHg 83%
    17:00 +3°C° 0 mm 5 m/s 751 mmHg 86%
    18:00 +3°C° 0 mm 5 m/s 751 mmHg 86%
    19:00 +3°C° 0 mm 5 m/s 751 mmHg 87%
    20:00 +5°C° 0 mm 5 m/s 750 mmHg 88%
    21:00 +5°C° 0.1 mm 5 m/s 750 mmHg 89%
    22:00 +4°C° 0.1 mm 6 m/s 749 mmHg 90%
    23:00 +4°C° 0.1 mm 6 m/s 749 mmHg 91%

    Après-demain, 23 Janvier, Mercredi

    Heure Température Précipitation Vent Pression Humidité
    00:00 +4°C° 0 mm 6 m/s 748 mmHg 91%
    01:00 +5°C° 0 mm 6 m/s 747 mmHg 92%
    02:00 +5°C° 0 mm 6 m/s 747 mmHg 92%
    03:00 +5°C° 1.6 mm 7 m/s 746 mmHg 93%
    04:00 +5°C° 1.6 mm 7 m/s 745 mmHg 94%
    05:00 +5°C° 1.6 mm 7 m/s 744 mmHg 95%
    06:00 +6°C° 0.5 mm 8 m/s 744 mmHg 92%
    07:00 +6°C° 0.5 mm 8 m/s 744 mmHg 89%
    08:00 +7°C° 0.5 mm 8 m/s 743 mmHg 86%
    09:00 +9°C° 0 mm 8 m/s 743 mmHg 82%
    10:00 +10°C° 0 mm 8 m/s 743 mmHg 78%
    11:00 +11°C° 0 mm 9 m/s 743 mmHg 74%
    12:00 +12°C° 0 mm 8 m/s 743 mmHg 70%
    13:00 +12°C° 0 mm 8 m/s 743 mmHg 67%
    14:00 +13°C° 0 mm 8 m/s 743 mmHg 63%
    15:00 +12°C° 0 mm 7 m/s 743 mmHg 65%
    16:00 +11°C° 0 mm 7 m/s 743 mmHg 68%
    17:00 +11°C° 0 mm 6 m/s 743 mmHg 70%
    18:00 +10°C° 0 mm 6 m/s 743 mmHg 74%
    19:00 +9°C° 0 mm 6 m/s 744 mmHg 77%
    20:00 +9°C° 0 mm 6 m/s 744 mmHg 81%
    21:00 +9°C° 0 mm 6 m/s 744 mmHg 83%
    22:00 +8°C° 0 mm 6 m/s 744 mmHg 86%
    23:00 +8°C° 0 mm 5 m/s 745 mmHg 88%

    24 Janvier, Jeudi

    Heure Température Précipitation Vent Pression Humidité
    00:00 +8°C° 0 mm 5 m/s 745 mmHg 89%
    01:00 +8°C° 0 mm 5 m/s 744 mmHg 89%
    02:00 +8°C° 0 mm 4 m/s 744 mmHg 89%
    03:00 +8°C° 0.2 mm 4 m/s 744 mmHg 92%
    04:00 +8°C° 0.2 mm 3 m/s 744 mmHg 94%
    05:00 +8°C° 0.2 mm 3 m/s 744 mmHg 96%
    06:00 +8°C° 0.1 mm 3 m/s 744 mmHg 96%
    07:00 +7°C° 0.1 mm 4 m/s 744 mmHg 96%
    08:00 +7°C° 0.1 mm 4 m/s 744 mmHg 96%
    09:00 +8°C° 0 mm 4 m/s 744 mmHg 92%
    10:00 +9°C° 0 mm 5 m/s 744 mmHg 87%
    11:00 +10°C° 0 mm 5 m/s 744 mmHg 82%
    12:00 +10°C° 0 mm 6 m/s 743 mmHg 80%
    13:00 +10°C° 0 mm 6 m/s 743 mmHg 77%
    14:00 +10°C° 0 mm 6 m/s 742 mmHg 74%
    15:00 +9°C° 0 mm 7 m/s 742 mmHg 79%
    16:00 +8°C° 0 mm 7 m/s 742 mmHg 84%
    17:00 +6°C° 0 mm 8 m/s 742 mmHg 89%
    18:00 +6°C° 0 mm 9 m/s 743 mmHg 89%
    19:00 +6°C° 0 mm 9 m/s 743 mmHg 90%
    20:00 +6°C° 0 mm 10 m/s 743 mmHg 90%
    21:00 +6°C° 0 mm 10 m/s 744 mmHg 90%
    22:00 +6°C° 0 mm 10 m/s 744 mmHg 91%
    23:00 +6°C° 0 mm 10 m/s 744 mmHg 91%

    25 Janvier, Vendredi

    Heure Température Précipitation Vent Pression Humidité
    00:00 +5°C° 0.1 mm 9 m/s 744 mmHg 91%
    01:00 +5°C° 0.1 mm 9 m/s 744 mmHg 90%
    02:00 +5°C° 0.1 mm 9 m/s 744 mmHg 90%
    03:00 +5°C° 0.8 mm 9 m/s 744 mmHg 92%
    04:00 +5°C° 0.8 mm 8 m/s 744 mmHg 93%
    05:00 +5°C° 0.8 mm 8 m/s 744 mmHg 94%
    06:00 +5°C° 1.3 mm 7 m/s 745 mmHg 94%
    07:00 +5°C° 1.3 mm 7 m/s 745 mmHg 95%
    08:00 +5°C° 1.3 mm 7 m/s 745 mmHg 95%
    09:00 +5°C° 0.1 mm 7 m/s 745 mmHg 95%
    10:00 +5°C° 0.1 mm 6 m/s 746 mmHg 95%
    11:00 +5°C° 0.1 mm 6 m/s 746 mmHg 95%
    12:00 +5°C° 0.1 mm 6 m/s 746 mmHg 95%
    13:00 +5°C° 0.1 mm 6 m/s 745 mmHg 95%
    14:00 +5°C° 0.1 mm 6 m/s 745 mmHg 95%
    15:00 +7°C° 0.4 mm 6 m/s 745 mmHg 95%
    16:00 +7°C° 0.4 mm 6 m/s 745 mmHg 95%
    17:00 +7°C° 0.4 mm 5 m/s 745 mmHg 96%
    18:00 +7°C° 0.9 mm 6 m/s 745 mmHg 96%
    19:00 +7°C° 0.9 mm 6 m/s 745 mmHg 96%
    20:00 +7°C° 0.9 mm 6 m/s 745 mmHg 96%
    21:00 +7°C° 1.2 mm 5 m/s 745 mmHg 96%
    22:00 +7°C° 1.2 mm 4 m/s 745 mmHg 96%
    23:00 +8°C° 1.2 mm 3 m/s 745 mmHg 97%

    26 Janvier, Samedi

    Heure Température Précipitation Vent Pression Humidité
    00:00 +8°C° 0.2 mm 3 m/s 744 mmHg 97%
    01:00 +7°C° 0.2 mm 2 m/s 744 mmHg 97%
    02:00 +7°C° 0.2 mm 2 m/s 744 mmHg 98%
    03:00 +7°C° 0 mm 2 m/s 744 mmHg 97%
    04:00 +7°C° 0 mm 3 m/s 744 mmHg 96%
    05:00 +6°C° 0 mm 4 m/s 744 mmHg 95%
    06:00 +5°C° 0 mm 4 m/s 744 mmHg 92%
    07:00 +5°C° 0 mm 5 m/s 744 mmHg 90%
    08:00 +5°C° 0 mm 5 m/s 744 mmHg 87%
    09:00 +5°C° 0 mm 5 m/s 745 mmHg 85%
    10:00 +4°C° 0 mm 6 m/s 745 mmHg 83%
    11:00 +4°C° 0 mm 6 m/s 745 mmHg 81%
    12:00 +4°C° 0 mm 6 m/s 745 mmHg 78%
    13:00 +4°C° 0 mm 6 m/s 745 mmHg 76%
    14:00 +6°C° 0 mm 5 m/s 745 mmHg 74%
    15:00 +4°C° 0 mm 6 m/s 745 mmHg 76%
    16:00 +3°C° 0 mm 6 m/s 746 mmHg 77%
    17:00 +2°C° 0 mm 6 m/s 746 mmHg 79%
    18:00 +2°C° 0 mm 6 m/s 746 mmHg 80%
    19:00 +1°C° 0 mm 6 m/s 746 mmHg 82%
    20:00 -1°C° 0 mm 6 m/s 746 mmHg 84%
    21:00 -1°C° 0 mm 6 m/s 746 mmHg 84%
    22:00 -1°C° 0 mm 6 m/s 746 mmHg 83%
    23:00 0°C° 0 mm 5 m/s 747 mmHg 83%
    Voir plus